Port Clinton Carl R Keller Fi, OH

4:19 AM EST on December 16, 2017 (GMT -0500)
Keller

Weather History for KPCW - October, 2013

Change the Weather History Date:

Thursday, October 3, 2013

  Actual Average (KTTF) Record (KTTF)
Temperature  
Mean Temperature 73 °F -  
Max Temperature 84 °F 67 °F 88 °F (1951)
Min Temperature 62 °F 46 °F 28 °F (1974)
Cooling Degree Days 8    
Growing Degree Days 23 (Base 50)    
Moisture  
Dew Point 67 °F    
Average Humidity 82    
Maximum Humidity 96    
Minimum Humidity 62    
Precipitation  
Precipitation 0.00 in - - ()
Sea Level Pressure  
Sea Level Pressure 30.01 in    
Wind  
Wind Speed 4 mph ()    
Max Wind Speed 10 mph    
Max Gust Speed -    
Visibility 10.0 miles    
Events Rain    
Averages and records for this station are not official NWS values.
T = Trace of Precipitation, MM = Missing Value Source: Averaged Metar Reports

Daily Weather History Graph

Daily Weather History Graph

Search for Another Location

Airport or City:

Trip Planner

Search our weather history database for the weather conditions in past years. The results will help you decide how hot, cold, wet, or windy it might be!

Date:

Astronomy

Oct. 03, 2013 Rise Set
Actual Time 7:30 AM EDT 7:09 PM EDT
Civil Twilight 7:02 AM EDT 7:37 PM EDT
Nautical Twilight 6:30 AM EDT 8:09 PM EDT
Astronomical Twilight 5:58 AM EDT 8:41 PM EDT
Moon 6:02 AM EDT (10/3) 6:17 PM EDT (10/3)
Length of Visible Light 12h 34m
Length of Day
11h 38m
Waning Crescent, 2% of the Moon is Illuminated
Oct 3
Waning Crescent
Oct 4
New
Oct 11
First Quarter
Oct 18
Full
Oct 26
Last Quarter

Hourly Weather History & Observations

Time (EDT) Temp. Heat Index Dew Point Humidity Pressure Visibility Wind Dir Wind Speed Gust Speed Precip Events Conditions
12:13 AM 66.2 °F - 60.8 °F 83% 30.06 in - SSE 3.5 mph - N/A   Unknown
12:33 AM 64.4 °F - 60.8 °F 88% 30.06 in - SE 3.5 mph - N/A   Unknown
12:53 AM 63.9 °F - 59.0 °F 84% 30.06 in - ESE 3.5 mph - N/A   Unknown
1:13 AM 64.4 °F - 60.8 °F 88% 30.05 in - ESE 3.5 mph - N/A   Unknown
1:33 AM 62.6 °F - 59.0 °F 88% 30.05 in - East 3.5 mph - N/A   Unknown
1:53 AM 63.9 °F - 59.0 °F 84% 30.05 in - Calm Calm - N/A   Unknown
2:13 AM 64.4 °F - 60.8 °F 88% 30.05 in - Calm Calm - N/A   Mostly Cloudy
2:33 AM 64.4 °F - 60.8 °F 88% 30.05 in - Calm Calm - N/A   Unknown
2:53 AM 63.9 °F - 61.0 °F 90% 30.03 in - ESE 5.8 mph - N/A   Unknown
3:13 AM 66.2 °F - 62.6 °F 88% 30.03 in - ESE 5.8 mph - N/A   Unknown
3:33 AM 66.2 °F - 62.6 °F 88% 30.02 in - ESE 5.8 mph - N/A   Unknown
3:54 AM 66.9 °F - 63.9 °F 90% 30.03 in - SSE 4.6 mph - N/A   Unknown
4:13 AM 66.2 °F - 64.4 °F 94% 30.02 in - SE 5.8 mph - N/A   Unknown
4:34 AM 66.2 °F - 62.6 °F 88% 30.03 in - SSE 4.6 mph - N/A   Unknown
4:53 AM 65.8 °F - 63.9 °F 93% 30.03 in - SSE 3.5 mph - N/A   Mostly Cloudy
5:13 AM 66.2 °F - 62.6 °F 88% 30.03 in - Calm Calm - N/A   Unknown
5:34 AM 64.4 °F - 62.6 °F 94% 30.03 in - ESE 3.5 mph - N/A   Unknown
5:53 AM 64.9 °F - 63.0 °F 93% 30.03 in - Calm Calm - N/A   Mostly Cloudy
6:13 AM 64.4 °F - 62.6 °F 94% 30.03 in - Calm Calm - N/A   Mostly Cloudy
6:34 AM 64.4 °F - 62.6 °F 94% 30.03 in - Calm Calm - N/A   Mostly Cloudy
6:53 AM 64.9 °F - 63.9 °F 96% 30.04 in - Calm Calm - N/A   Unknown
7:13 AM 66.2 °F - 64.4 °F 94% 30.04 in - Calm Calm - N/A   Overcast
7:33 AM 66.2 °F - 64.4 °F 94% 30.04 in - Calm Calm - N/A   Unknown
7:53 AM 64.9 °F - 63.9 °F 96% 30.03 in - Calm Calm - N/A   Unknown
8:14 AM 66.2 °F - 64.4 °F 94% 30.04 in - South 3.5 mph - N/A   Unknown
8:33 AM 69.8 °F - 66.2 °F 88% 30.04 in - Calm Calm - N/A   Unknown
8:53 AM 68.9 °F - 65.8 °F 90% 30.04 in - SW 3.5 mph - N/A   Unknown
9:13 AM 69.8 °F - 66.2 °F 88% 30.03 in - South 4.6 mph - N/A   Unknown
9:33 AM 71.6 °F - 66.2 °F 83% 30.04 in - SSW 5.8 mph - N/A   Unknown
9:53 AM 70.9 °F - 66.9 °F 87% 30.04 in - SW 4.6 mph - N/A   Unknown
10:13 AM 73.4 °F - 69.8 °F 88% 30.04 in - WSW 4.6 mph - N/A   Unknown
10:34 AM 73.4 °F - 68.0 °F 83% 30.05 in - WSW 6.9 mph - N/A   Unknown
10:53 AM 74.8 °F - 68.0 °F 79% 30.04 in - SW 6.9 mph - N/A   Unknown
11:13 AM 78.8 °F - 69.8 °F 74% 30.04 in - WSW 5.8 mph - N/A   Unknown
11:33 AM 78.8 °F - 69.8 °F 74% 30.04 in - SW 5.8 mph - N/A   Unknown
11:53 AM 77.0 °F - 68.9 °F 76% 30.04 in - SSW 4.6 mph - N/A   Unknown
12:13 PM 77.0 °F - 68.0 °F 74% 30.04 in - SSW 4.6 mph - N/A   Unknown
12:33 PM 78.8 °F - 69.8 °F 74% 30.03 in - SW 4.6 mph - N/A   Unknown
12:53 PM 79.9 °F - 70.0 °F 72% 30.03 in - SW 8.1 mph - N/A   Unknown
1:14 PM 82.4 °F 86.3 °F 69.8 °F 66% 30.02 in - WSW 9.2 mph - N/A   Unknown
1:33 PM 82.4 °F 86.3 °F 69.8 °F 66% 30.01 in - SW 9.2 mph - N/A   Unknown
1:53 PM 81.0 °F 84.1 °F 68.9 °F 67% 30.01 in - WSW 9.2 mph - N/A   Unknown
2:13 PM 82.4 °F 86.3 °F 69.8 °F 66% 30.00 in - SW 10.4 mph - N/A   Unknown
2:34 PM 82.4 °F 86.3 °F 69.8 °F 66% 29.99 in - WSW 9.2 mph - N/A   Unknown
2:53 PM 81.0 °F 84.4 °F 70.0 °F 69% 29.99 in - SW 6.9 mph - N/A   Unknown
3:13 PM 82.4 °F 86.3 °F 69.8 °F 66% 29.99 in - SW 8.1 mph - N/A   Unknown
3:34 PM 84.2 °F 88.4 °F 69.8 °F 62% 29.98 in - WSW 6.9 mph - N/A   Unknown
3:53 PM 82.9 °F 86.3 °F 68.9 °F 62% 29.98 in - SW 10.4 mph - N/A   Unknown
4:13 PM 82.4 °F 87.2 °F 71.6 °F 70% 29.97 in - Variable 3.5 mph - N/A   Unknown
4:34 PM 78.8 °F - 71.6 °F 78% 29.98 in - Variable 3.5 mph - N/A Rain Light Rain
4:53 PM 77.0 °F - 70.0 °F 79% 29.98 in - SSW 6.9 mph - N/A   Unknown
5:13 PM 78.8 °F - 71.6 °F 78% 29.97 in - South 4.6 mph - N/A   Unknown
5:34 PM 78.8 °F - 69.8 °F 74% 29.97 in - SSW 4.6 mph - N/A   Unknown
5:53 PM 77.9 °F - 68.9 °F 74% 29.97 in - SW 5.8 mph - 0.00 in   Unknown
6:14 PM 77.0 °F - 69.8 °F 78% 29.96 in - SSW 5.8 mph - N/A   Unknown
6:33 PM 77.0 °F - 69.8 °F 78% 29.96 in - SSW 4.6 mph - N/A   Unknown
6:53 PM 75.9 °F - 68.9 °F 79% 29.97 in - SW 6.9 mph - N/A   Unknown
7:14 PM 75.2 °F - 68.0 °F 78% 29.97 in - SSW 6.9 mph - N/A   Unknown
7:33 PM 75.2 °F - 68.0 °F 78% 29.97 in - SSW 8.1 mph - N/A   Unknown
7:53 PM 73.9 °F - 68.0 °F 82% 29.97 in - South 6.9 mph - N/A   Unknown
8:14 PM 73.4 °F - 69.8 °F 88% 29.97 in - South 6.9 mph - N/A   Unknown
8:27 PM 73.4 °F - 69.8 °F 88% 29.97 in - South 5.8 mph - N/A   Unknown
8:42 PM 73.4 °F - 69.8 °F 88% 29.98 in 10.0 mi South 5.8 mph - N/A   Clear
9:12 PM 73.4 °F - 69.8 °F 88% 29.99 in - SSW 6.9 mph - N/A   Unknown
9:30 PM 73.4 °F - 69.8 °F 88% 29.99 in - South 8.1 mph - N/A   Unknown
9:53 PM 72.9 °F - 68.9 °F 87% 29.99 in - SSW 6.9 mph - N/A   Unknown
10:13 PM 73.4 °F - 69.8 °F 88% 30.00 in - SSW 9.2 mph - N/A   Unknown
10:33 PM 73.4 °F - 68.0 °F 83% 30.00 in - SSW 9.2 mph - N/A   Unknown
10:53 PM 72.9 °F - 68.0 °F 85% 30.01 in - SSW 8.1 mph - N/A   Unknown
11:13 PM 73.4 °F - 66.2 °F 78% 30.01 in - SSW 8.1 mph - N/A   Unknown
11:33 PM 73.4 °F - 66.2 °F 78% 30.01 in - SSW 8.1 mph - N/A   Unknown